OBJECT B, 57167

Orbit data source: Space-Track

You're viewing an Uncataloged Satellite

Recently launched and/or uncataloged satellites may have evolving metadata. Metadata may include but not limited to: Owner, Maufacturer, Bus, Motor, and Mission.

OBJECT B, 57167 is a satellite in SSO that was launched on Tue, 27 Jun 2023 UTC via a SOYUZ-2-1B launch vehicle from the Vostochny Cosmodrome (VOSTO). Unknown objects in Earth's orbit typically refer to objects detected orbiting the Earth but have not yet been identified or cataloged. These objects could be anything from previously untracked satellites, spent rocket stages, debris from satellite collisions, or even natural meteoroids temporarily captured by Earth's gravity.

Loading next visibility...
Identifier
57167, 2023-091B
Orbit
SSO
Country
Flag of TBDTBD
Related business
Flag of RUOOO Stratonavtika (RU)
Manufacturer
Geoskan
Mission
Operational Commercial Technology
Bus & Motor
CUBESAT 3U, Unknown motor
Mass
4.205 kg wet, 4.205 kg dry
Launch date (UTC)
2023-06-27 (2 years ago)
Launch vehicle
SOYUZ-2-1B
Launch site
Vostochny Cosmodrome (VOSTO)
Object type
Unknown
Shape & HBR
Box, 0.1 m
Radar Cross Section
0.035 m², Medium (>0.1 m² and < 1m²)

Expand to show TLE details & history
Last TLE update: 11 hours ago

TLE from 11 hours ago
0 OBJECT B
1 57167U 23091B   25304.83011765  .00137849  00000-0  17409-2 0  9991
2 57167  97.5314  14.3329 0005313 155.7289 204.4218 15.59077386130318
Epoch: 2025-10-31T19:55Z
TLE epoch observation values (Epoch: 2025-10-31T19:55:22.164Z)
Latitude
-0.00006°
Longitude
35.12163°
Altitude
396.741 km
Speed
7.67 km/s
True Right ascension
00h 57m 19s
True Declination
0° 00' 00"
Sunlit
Object was in full shadow at epoch
Visualization orbit readout
Latitude
Unknown
Longitude
Unknown
Altitude
Unknown
Speed
Unknown
Apparent Right ascension
Unknown
Apparent Declination
Unknown
Sunlit
N/A
Visualization observer readout
Local Sidereal Time
02:59:57
Azimuth
Unknown
Elevation
Unknown
Doppler factor
Unknown
Orbital elements
Apogee altitude
390.84 km
Perigee altitude
383.651 km
Semi-major axis
6,765.382 km
Eccentricity
0.00053
Inclination
97.5314°
RAAN
14.3329°
Arg. of periapsis
155.7289°
True anomaly
204.39664°
Mean anomaly
204.4218°
Eccentric anomaly
204.40922°
Mean motion
3.90036 °/min
Orbital period
92.3 mins
BSTAR
0.0017409
Loading maneuver chart data...
Computing Atmospheric mass density...
Loading historical data...
Loading historical data...
Loading historical data...
Loading historical data...
Loading historical data...
Loading historical data...
Loading historical data...

Documentation

Showing up to 5 results
|